Regional Weather Roundup
Issued by NWS

Home | Current Version | Previous Version | Graphics & Text | Print | Product List | Glossary On
Versions: 1 2 3 4 5 6 7 8 9 10 11 12 13 14 15 16 17 18 19 20 21 22 23 24 25 26 27 28 29 30 31 32 33 34 35 36 37 38 39 40 41 42 43 44 45 46 47 48 49 50
000
ASUS43 KLMK 230710
RWRKY
KENTUCKY REGIONAL WEATHER ROUNDUP
NATIONAL WEATHER SERVICE LOUISVILLE KY
300 AM EDT SAT JUL 23 2016

NOTE "FAIR" INDICATES FEW OR NO CLOUDS BELOW 12,000 FEET
WITH NO SIGNIFICANT WEATHER AND/OR OBSTRUCTIONS TO VISIBILITY.

KYZ001>023-026-027-061>063-070>075-230800-
WESTERN AND SOUTH CENTRAL KENTUCKY

CITY           SKY/WX    TMP DP  RH WIND       PRES   REMARKS
PADUCAH        CLOUDY    77  74  90 S5        29.98F
HENDERSON      PTCLDY    73  70  88 CALM      29.99S
OWENSBORO      PTCLDY    74  73  96 CALM      30.00F
HOPKINSVILLE   MOCLDY    76  72  87 E5        30.00F
BOWLING GREEN  CLEAR     75  73  93 CALM      30.01S
GLASGOW        PTCLDY    74  74 100 E3        30.02S
$$

KYZ024-025-028>034-038-045-046-053-230800-
NORTH CENTRAL KENTUCKY

CITY           SKY/WX    TMP DP  RH WIND       PRES   REMARKS
LOUISVILLE/SDF PTCLDY    77  71  82 CALM      30.01S
LOUISVILLE/LOU CLEAR     75  70  84 CALM      30.02S
FORT KNOX      CLEAR     72  72 100 NE2       30.00F FOG
$$

KYZ035>037-039>044-047>052-055>060-089>105-230800-
NORTHEAST KENTUCKY

CITY           SKY/WX    TMP DP  RH WIND       PRES   REMARKS
LEXINGTON      CLEAR     72  69  90 CALM      30.05S
COVINGTON      CLEAR     73  71  93 CALM      30.03F
FRANKFORT      CLEAR     73  69  87 CALM      30.03S
$$

KYZ054-064>069-076>088-106>120-230800-
SOUTHEAST KENTUCKY

CITY           SKY/WX    TMP DP  RH WIND       PRES   REMARKS
JACKSON        CLOUDY    70  68  93 CALM      30.07S FOG
LONDON         PTCLDY    73  69  87 CALM      30.06S
SOMERSET       PTCLDY    70  70 100 CALM      30.06R FOG
MIDDLESBORO    CLOUDY    75  73  92 CALM      30.06S
MONTICELLO     CLOUDY   N/A N/A N/A N9        30.06R
$$





USA.gov is the U.S. government's official web portal to all federal, state and local government web resources and services.